Погода в Подольском

Россия / Костромская область     57°30′05″N   41°19′50″E
темп.,
°C
ветер,
м/с
пор.,
м/с
влажн.,
%
обл.,
%
осадки,
мм/ч
давл.,
гПа
погр.,
м
20 апреля, вт
вт2000:00+2в6136695 0.0 1029417
03:000в513701 0.0 1029352
06:000в512685 0.0 1028367
09:00+5вюв7105058 0.0 1028680
12:00+8вюв81043100 0.0 10261306
15:00+9вюв81145100 0.0 10241656
18:00+8вюв71248100 0.0 10221209
21:00+6в71549100 0.0 1021736
21 апреля, ср
ср2100:00+5в71553100 0.0 1018692
03:00+3в91666100 0.3 1015873
06:00+1в101997100 4.2 1010889
09:00+2вюв111993100 6.1 1008829
12:00+5вюв101889100 0.0 1006978
15:00+6ююв91791100 1.4 10051276
18:00+4ююз51093100 2.8 1007708
21:00+3ююз4888100 2.8 1009415
22 апреля, чт
чт2200:00+3ююз4991100 0.1 1011438
03:00+3ююз4994100 0.1 1012352
06:00+3ююз5995100 0.0 1014373
09:00+4ююз4894100 0.6 1015607
12:00+6ю578993 0.3 1016627
15:00+8ю567799 0.4 1017955
18:00+7ю488097 0.0 1017402
21:00+4ююв49905 0.0 1019156
23 апреля, пт
пт2300:00+3ююв49936 0.0 1018148
03:00+4ююв4119087 0.0 1018240
06:00+5ююв511916 0.0 1018272
09:00+10ююв610775 0.0 1018519
12:00+15ю786212 0.0 10181201
15:00+16ю685588 0.8 10171474
18:00+14ю486237 1.3 1016275
21:00+10ююв498161 1.9 1017163
24 апреля, сб
сб2400:00+8ююв411885 0.0 1016209
03:00+7юв5118911 0.0 1015209
06:00+7юв512895 0.0 1014291
09:00+12юв7126931 0.0 1012721
12:00+15ююв9115224 0.5 10101990
15:00+15юв7105198 0.6 10081692
18:00+13юв8136285 0.2 1006936
21:00+10вюв71569100 0.3 1005657